Time,TemperatureF,DewpointF,PressureIn,WindDirection,WindDirectionDegrees,WindSpeedMPH,WindSpeedGustMPH,Humidity,HourlyPrecipIn,Conditions,Clouds,dailyrainin,SoftwareType,DateUTC
2013-01-10 00:00:00,31.9,25.2,30.37,WNW,292,0.0,0.0,76,0.00,CLR,,0.00,WeatherDisplay:10.37,2013-01-10 05:00:00,
2013-01-10 00:03:00,31.7,25.0,30.37,WNW,293,0.0,0.0,76,0.00,CLR,,0.00,WeatherDisplay:10.37,2013-01-10 05:03:00,
2013-01-10 00:08:00,31.2,24.8,30.37,WNW,292,0.0,0.0,77,0.00,CLR,,0.00,WeatherDisplay:10.37,2013-01-10 05:08:00,
2013-01-10 00:13:00,30.7,24.7,30.37,WNW,293,0.0,0.0,78,0.00,CLR,,0.00,WeatherDisplay:10.37,2013-01-10 05:13:00,
2013-01-10 00:18:00,30.3,24.6,30.36,WNW,293,0.0,0.0,79,0.00,CLR,,0.00,WeatherDisplay:10.37,2013-01-10 05:18:00,
2013-01-10 00:23:00,30.1,24.4,30.37,WNW,293,0.0,0.0,79,0.00,CLR,,0.00,WeatherDisplay:10.37,2013-01-10 05:23:00,
2013-01-10 00:28:00,29.8,24.1,30.37,WNW,293,0.0,0.0,79,0.00,CLR,,0.00,WeatherDisplay:10.37,2013-01-10 05:28:00,
2013-01-10 00:33:00,29.4,24.0,30.37,WNW,292,0.0,0.0,80,0.00,CLR,,0.00,WeatherDisplay:10.37,2013-01-10 05:33:00,
2013-01-10 00:38:00,28.8,23.7,30.37,WNW,293,0.0,0.0,81,0.00,CLR,,0.00,WeatherDisplay:10.37,2013-01-10 05:38:00,
2013-01-10 00:43:00,28.5,23.7,30.38,WNW,293,0.0,0.0,82,0.00,CLR,,0.00,WeatherDisplay:10.37,2013-01-10 05:43:00,
2013-01-10 00:48:00,28.3,23.8,30.38,WNW,293,1.1,0.0,83,0.00,CLR,,0.00,WeatherDisplay:10.37,2013-01-10 05:48:00,
2013-01-10 00:53:00,28.3,23.8,30.38,WNW,293,1.1,0.0,83,0.00,CLR,,0.00,WeatherDisplay:10.37,2013-01-10 05:53:00,
2013-01-10 00:58:00,28.1,23.6,30.39,WNW,292,0.0,0.0,83,0.00,CLR,,0.00,WeatherDisplay:10.37,2013-01-10 05:58:00,
2013-01-10 01:03:00,28.1,23.6,30.39,WNW,293,0.0,0.0,83,0.00,CLR,,0.00,WeatherDisplay:10.37,2013-01-10 06:03:00,
2013-01-10 01:08:00,27.9,23.4,30.38,WNW,293,0.0,0.0,83,0.00,CLR,,0.00,WeatherDisplay:10.37,2013-01-10 06:08:00,
2013-01-10 01:13:00,27.5,23.3,30.39,WNW,292,0.0,0.0,84,0.00,CLR,,0.00,WeatherDisplay:10.37,2013-01-10 06:13:00,
2013-01-10 01:18:00,27.4,23.2,30.39,WNW,293,0.0,0.0,84,0.00,CLR,,0.00,WeatherDisplay:10.37,2013-01-10 06:18:00,
2013-01-10 01:23:00,27.3,23.4,30.39,WNW,293,0.0,0.0,85,0.00,CLR,,0.00,WeatherDisplay:10.37,2013-01-10 06:23:00,
2013-01-10 01:28:00,27.2,23.3,30.40,WNW,292,0.0,0.0,85,0.00,CLR,,0.00,WeatherDisplay:10.37,2013-01-10 06:28:00,
2013-01-10 01:33:00,27.1,23.2,30.40,WNW,292,0.0,0.0,85,0.00,CLR,,0.00,WeatherDisplay:10.37,2013-01-10 06:33:00,
2013-01-10 01:38:00,26.9,23.0,30.40,WNW,293,0.0,0.0,85,0.00,CLR,,0.00,WeatherDisplay:10.37,2013-01-10 06:38:00,
2013-01-10 01:43:00,26.8,23.2,30.41,WNW,292,0.0,0.0,86,0.00,CLR,,0.00,WeatherDisplay:10.37,2013-01-10 06:43:00,
2013-01-10 01:48:00,26.8,23.2,30.41,WNW,293,0.0,0.0,86,0.00,CLR,,0.00,WeatherDisplay:10.37,2013-01-10 06:48:00,
2013-01-10 01:53:00,26.6,22.7,30.43,WNW,292,1.1,0.0,85,0.00,CLR,,0.00,WeatherDisplay:10.37,2013-01-10 06:53:00,
2013-01-10 01:58:00,26.4,22.8,30.43,WNW,293,1.1,0.0,86,0.00,CLR,,0.00,WeatherDisplay:10.37,2013-01-10 06:58:00,
2013-01-10 02:03:00,26.7,23.4,30.44,WNW,291,1.1,1.1,87,0.00,CLR,,0.00,WeatherDisplay:10.37,2013-01-10 07:03:00,
2013-01-10 02:08:00,27.2,23.8,30.44,WNW,291,3.0,3.0,87,0.00,CLR,,0.00,WeatherDisplay:10.37,2013-01-10 07:08:00,
2013-01-10 02:13:00,27.8,24.2,30.44,WNW,291,2.3,0.0,86,0.00,CLR,,0.00,WeatherDisplay:10.37,2013-01-10 07:13:00,
2013-01-10 02:18:00,28.1,24.2,30.44,WNW,291,0.0,0.0,85,0.00,CLR,,0.00,WeatherDisplay:10.37,2013-01-10 07:18:00,
2013-01-10 02:23:00,27.9,24.0,30.45,WNW,291,1.1,1.1,85,0.00,CLR,,0.00,WeatherDisplay:10.37,2013-01-10 07:23:00,
2013-01-10 02:28:00,28.0,24.1,30.45,WNW,291,1.1,0.0,85,0.00,CLR,,0.00,WeatherDisplay:10.37,2013-01-10 07:28:00,
2013-01-10 02:33:00,28.1,24.2,30.46,WNW,291,1.1,0.0,85,0.00,CLR,,0.00,WeatherDisplay:10.37,2013-01-10 07:33:00,
2013-01-10 02:39:00,28.0,24.1,30.46,WNW,291,0.0,0.0,85,0.00,CLR,,0.00,WeatherDisplay:10.37,2013-01-10 07:39:00,
2013-01-10 02:44:00,28.3,24.4,30.46,WNW,291,2.3,2.3,85,0.00,CLR,,0.00,WeatherDisplay:10.37,2013-01-10 07:44:00,
2013-01-10 02:49:00,28.4,24.5,30.47,WNW,291,0.0,0.0,85,0.00,CLR,,0.00,WeatherDisplay:10.37,2013-01-10 07:49:00,
2013-01-10 02:54:00,28.5,24.3,30.48,WNW,291,2.0,2.0,84,0.00,CLR,,0.00,WeatherDisplay:10.37,2013-01-10 07:54:00,
2013-01-10 02:59:00,28.7,24.5,30.48,WNW,291,0.0,0.0,84,0.00,CLR,,0.00,WeatherDisplay:10.37,2013-01-10 07:59:00,
2013-01-10 03:04:00,28.9,24.7,30.48,WNW,291,0.0,0.0,84,0.00,CLR,,0.00,WeatherDisplay:10.37,2013-01-10 08:04:00,
2013-01-10 03:09:00,28.9,24.7,30.48,WNW,291,0.0,0.0,84,0.00,CLR,,0.00,WeatherDisplay:10.37,2013-01-10 08:09:00,
2013-01-10 03:14:00,28.7,24.5,30.48,WNW,291,0.0,0.0,84,0.00,CLR,,0.00,WeatherDisplay:10.37,2013-01-10 08:14:00,
2013-01-10 03:19:00,28.6,24.4,30.49,WNW,291,0.0,0.0,84,0.00,CLR,,0.00,WeatherDisplay:10.37,2013-01-10 08:19:00,
2013-01-10 03:24:00,28.1,23.9,30.49,WNW,291,0.0,0.0,84,0.00,CLR,,0.00,WeatherDisplay:10.37,2013-01-10 08:24:00,
2013-01-10 03:29:00,27.3,23.1,30.49,WNW,291,0.0,0.0,84,0.00,CLR,,0.00,WeatherDisplay:10.37,2013-01-10 08:29:00,
2013-01-10 03:34:00,26.8,23.2,30.49,WNW,291,0.0,0.0,86,0.00,CLR,,0.00,WeatherDisplay:10.37,2013-01-10 08:34:00,
2013-01-10 03:39:00,26.6,23.3,30.49,WNW,291,1.0,0.0,87,0.00,CLR,,0.00,WeatherDisplay:10.37,2013-01-10 08:39:00,
2013-01-10 03:44:00,26.9,23.5,30.49,WNW,291,0.0,0.0,87,0.00,CLR,,0.00,WeatherDisplay:10.37,2013-01-10 08:44:00,
2013-01-10 03:49:00,27.0,23.6,30.48,WNW,291,1.1,1.1,87,0.00,CLR,,0.00,WeatherDisplay:10.37,2013-01-10 08:49:00,
2013-01-10 03:54:00,26.9,23.5,30.49,WNW,291,2.3,0.0,87,0.00,CLR,,0.00,WeatherDisplay:10.37,2013-01-10 08:54:00,
2013-01-10 03:59:00,26.9,23.5,30.49,WNW,291,2.3,2.3,87,0.00,CLR,,0.00,WeatherDisplay:10.37,2013-01-10 08:59:00,
2013-01-10 04:04:00,27.2,23.8,30.49,WNW,290,2.3,2.3,87,0.00,CLR,,0.00,WeatherDisplay:10.37,2013-01-10 09:04:00,
2013-01-10 04:09:00,27.4,24.0,30.49,WNW,290,1.1,0.0,87,0.00,CLR,,0.00,WeatherDisplay:10.37,2013-01-10 09:09:00,
2013-01-10 04:14:00,27.4,24.0,30.49,WNW,290,1.1,0.0,87,0.00,CLR,,0.00,WeatherDisplay:10.37,2013-01-10 09:14:00,
2013-01-10 04:19:00,27.6,24.2,30.49,West,262,0.0,0.0,87,0.00,CLR,,0.00,WeatherDisplay:10.37,2013-01-10 09:19:00,
2013-01-10 04:24:00,27.8,24.2,30.49,West,261,2.3,2.3,86,0.00,CLR,,0.00,WeatherDisplay:10.37,2013-01-10 09:24:00,
2013-01-10 04:29:00,27.8,24.2,30.49,West,261,3.5,0.0,86,0.00,CLR,,0.00,WeatherDisplay:10.37,2013-01-10 09:29:00,
2013-01-10 04:34:00,27.7,24.1,30.48,West,261,3.5,0.0,86,0.00,CLR,,0.00,WeatherDisplay:10.37,2013-01-10 09:34:00,
2013-01-10 04:39:00,27.7,24.1,30.48,West,261,0.0,0.0,86,0.00,CLR,,0.00,WeatherDisplay:10.37,2013-01-10 09:39:00,
2013-01-10 04:44:00,27.6,24.0,30.48,West,261,0.0,0.0,86,0.00,CLR,,0.00,WeatherDisplay:10.37,2013-01-10 09:44:00,
2013-01-10 04:49:00,27.3,23.7,30.48,West,261,0.0,0.0,86,0.00,CLR,,0.00,WeatherDisplay:10.37,2013-01-10 09:49:00,
2013-01-10 04:54:00,26.8,23.2,30.47,West,261,0.0,0.0,86,0.00,CLR,,0.00,WeatherDisplay:10.37,2013-01-10 09:54:00,
2013-01-10 04:59:00,26.5,23.2,30.47,West,261,0.0,0.0,87,0.00,CLR,,0.00,WeatherDisplay:10.37,2013-01-10 09:59:00,
2013-01-10 05:04:00,26.3,23.0,30.48,West,261,0.0,0.0,87,0.00,CLR,,0.00,WeatherDisplay:10.37,2013-01-10 10:04:00,
2013-01-10 05:09:00,26.2,23.1,30.48,West,261,0.0,0.0,88,0.00,CLR,,0.00,WeatherDisplay:10.37,2013-01-10 10:09:00,
2013-01-10 05:14:00,26.2,23.1,30.48,West,261,0.0,0.0,88,0.00,CLR,,0.00,WeatherDisplay:10.37,2013-01-10 10:14:00,
2013-01-10 05:19:00,26.0,22.9,30.48,West,261,0.0,0.0,88,0.00,CLR,,0.00,WeatherDisplay:10.37,2013-01-10 10:19:00,
2013-01-10 05:24:00,25.8,22.7,30.48,West,261,0.0,0.0,88,0.00,CLR,,0.00,WeatherDisplay:10.37,2013-01-10 10:24:00,
2013-01-10 05:29:00,25.8,23.0,30.48,West,261,0.0,0.0,89,0.00,CLR,,0.00,WeatherDisplay:10.37,2013-01-10 10:29:00,
2013-01-10 05:34:00,25.9,23.1,30.49,West,261,0.0,0.0,89,0.00,CLR,,0.00,WeatherDisplay:10.37,2013-01-10 10:34:00,
2013-01-10 05:39:00,25.8,23.0,30.49,West,261,0.0,0.0,89,0.00,CLR,,0.00,WeatherDisplay:10.37,2013-01-10 10:39:00,
2013-01-10 05:44:00,25.6,22.8,30.49,West,261,0.0,0.0,89,0.00,CLR,,0.00,WeatherDisplay:10.37,2013-01-10 10:44:00,
2013-01-10 05:49:00,25.5,22.7,30.49,West,261,0.0,0.0,89,0.00,CLR,,0.00,WeatherDisplay:10.37,2013-01-10 10:49:00,
2013-01-10 05:54:00,25.7,23.2,30.49,West,261,0.0,0.0,90,0.00,CLR,,0.00,WeatherDisplay:10.37,2013-01-10 10:54:00,
2013-01-10 05:59:00,25.8,23.3,30.49,West,261,0.0,0.0,90,0.00,CLR,,0.00,WeatherDisplay:10.37,2013-01-10 10:59:00,
2013-01-10 06:04:00,25.8,23.0,30.49,West,261,0.0,0.0,89,0.00,CLR,,0.00,WeatherDisplay:10.37,2013-01-10 11:04:00,
2013-01-10 06:09:00,25.6,22.8,30.49,West,261,0.0,0.0,89,0.00,CLR,,0.00,WeatherDisplay:10.37,2013-01-10 11:09:00,
2013-01-10 06:14:00,25.3,22.5,30.49,West,261,0.0,0.0,89,0.00,CLR,,0.00,WeatherDisplay:10.37,2013-01-10 11:14:00,
2013-01-10 06:19:00,25.1,22.3,30.49,West,261,0.0,0.0,89,0.00,CLR,,0.00,WeatherDisplay:10.37,2013-01-10 11:19:00,
2013-01-10 06:24:00,24.9,22.1,30.50,West,261,0.0,0.0,89,0.00,CLR,,0.00,WeatherDisplay:10.37,2013-01-10 11:24:00,
2013-01-10 06:29:00,24.8,22.3,30.50,West,261,0.0,0.0,90,0.00,CLR,,0.00,WeatherDisplay:10.37,2013-01-10 11:29:00,
2013-01-10 06:34:00,24.5,22.0,30.50,West,261,0.0,0.0,90,0.00,CLR,,0.00,WeatherDisplay:10.37,2013-01-10 11:34:00,
2013-01-10 06:39:00,24.3,21.8,30.51,West,261,0.0,0.0,90,0.00,CLR,,0.00,WeatherDisplay:10.37,2013-01-10 11:39:00,
2013-01-10 06:44:00,24.4,22.2,30.50,West,261,0.0,0.0,91,0.00,CLR,,0.00,WeatherDisplay:10.37,2013-01-10 11:44:00,
2013-01-10 06:49:00,24.4,22.2,30.50,West,261,0.0,0.0,91,0.00,CLR,,0.00,WeatherDisplay:10.37,2013-01-10 11:49:00,
2013-01-10 06:54:00,24.3,22.1,30.51,West,261,1.0,0.0,91,0.00,CLR,,0.00,WeatherDisplay:10.37,2013-01-10 11:54:00,
2013-01-10 06:59:00,24.4,22.2,30.51,West,261,0.0,0.0,91,0.00,CLR,,0.00,WeatherDisplay:10.37,2013-01-10 11:59:00,
2013-01-10 07:04:00,24.5,22.2,30.51,West,261,0.0,0.0,91,0.00,CLR,,0.00,WeatherDisplay:10.37,2013-01-10 12:04:00,
2013-01-10 07:09:00,24.5,22.2,30.51,West,261,0.0,0.0,91,0.00,CLR,,0.00,WeatherDisplay:10.37,2013-01-10 12:09:00,
2013-01-10 07:14:00,24.0,21.8,30.51,West,261,0.0,0.0,91,0.00,CLR,,0.00,WeatherDisplay:10.37,2013-01-10 12:14:00,
2013-01-10 07:19:00,23.7,21.5,30.51,West,261,0.0,0.0,91,0.00,CLR,,0.00,WeatherDisplay:10.37,2013-01-10 12:19:00,
2013-01-10 07:24:00,23.6,21.4,30.52,West,261,0.0,0.0,91,0.00,CLR,,0.00,WeatherDisplay:10.37,2013-01-10 12:24:00,
2013-01-10 07:29:00,23.5,21.3,30.52,West,261,0.0,0.0,91,0.00,CLR,,0.00,WeatherDisplay:10.37,2013-01-10 12:29:00,
2013-01-10 07:34:00,23.5,21.5,30.52,West,261,0.0,0.0,92,0.00,CLR,,0.00,WeatherDisplay:10.37,2013-01-10 12:34:00,
2013-01-10 07:39:00,23.5,21.5,30.52,West,261,0.0,0.0,92,0.00,CLR,,0.00,WeatherDisplay:10.37,2013-01-10 12:39:00,
2013-01-10 07:44:00,23.3,21.1,30.52,West,261,0.0,0.0,91,0.00,CLR,,0.00,WeatherDisplay:10.37,2013-01-10 12:44:00,
2013-01-10 07:49:00,23.2,21.2,30.52,West,261,0.0,0.0,92,0.00,CLR,,0.00,WeatherDisplay:10.37,2013-01-10 12:49:00,
2013-01-10 07:54:00,23.0,21.0,30.52,West,261,0.0,0.0,92,0.00,CLR,,0.00,WeatherDisplay:10.37,2013-01-10 12:54:00,
2013-01-10 07:59:00,22.9,20.9,30.53,West,261,0.0,0.0,92,0.00,CLR,,0.00,WeatherDisplay:10.37,2013-01-10 12:59:00,
2013-01-10 08:04:00,22.8,20.8,30.53,West,261,0.0,0.0,92,0.00,CLR,,0.00,WeatherDisplay:10.37,2013-01-10 13:04:00,
2013-01-10 08:09:00,22.7,20.7,30.53,West,261,0.0,0.0,92,0.00,CLR,,0.00,WeatherDisplay:10.37,2013-01-10 13:09:00,
2013-01-10 08:14:00,22.6,20.6,30.52,West,261,0.0,0.0,92,0.00,CLR,,0.00,WeatherDisplay:10.37,2013-01-10 13:14:00,
2013-01-10 08:19:00,22.6,20.6,30.53,West,261,0.0,0.0,92,0.00,CLR,,0.00,WeatherDisplay:10.37,2013-01-10 13:19:00,
2013-01-10 08:24:00,22.5,20.5,30.52,West,261,0.0,0.0,92,0.00,CLR,,0.00,WeatherDisplay:10.37,2013-01-10 13:24:00,
2013-01-10 08:29:00,22.4,20.4,30.52,West,261,0.0,0.0,92,0.00,CLR,,0.00,WeatherDisplay:10.37,2013-01-10 13:29:00,
2013-01-10 08:34:00,22.3,20.3,30.52,West,261,0.0,0.0,92,0.00,CLR,,0.00,WeatherDisplay:10.37,2013-01-10 13:34:00,
2013-01-10 08:40:00,22.3,20.6,30.53,West,261,0.0,0.0,93,0.00,CLR,,0.00,WeatherDisplay:10.37,2013-01-10 13:40:00,
2013-01-10 08:45:00,22.3,20.6,30.53,West,261,0.0,0.0,93,0.00,CLR,,0.00,WeatherDisplay:10.37,2013-01-10 13:45:00,
2013-01-10 08:50:00,22.4,20.7,30.52,West,261,0.0,0.0,93,0.00,CLR,,0.00,WeatherDisplay:10.37,2013-01-10 13:50:00,
2013-01-10 08:55:00,22.6,20.9,30.53,West,261,0.0,0.0,93,0.00,CLR,,0.00,WeatherDisplay:10.37,2013-01-10 13:55:00,
2013-01-10 09:00:00,22.8,21.1,30.53,West,261,0.0,0.0,93,0.00,CLR,,0.00,WeatherDisplay:10.37,2013-01-10 14:00:00,
2013-01-10 09:05:00,23.0,21.3,30.52,West,261,0.0,0.0,93,0.00,CLR,,0.00,WeatherDisplay:10.37,2013-01-10 14:05:00,
2013-01-10 09:10:00,23.3,21.6,30.52,West,261,0.0,0.0,93,0.00,CLR,,0.00,WeatherDisplay:10.37,2013-01-10 14:10:00,
2013-01-10 09:15:00,23.6,21.9,30.52,West,261,0.0,0.0,93,0.00,CLR,,0.00,WeatherDisplay:10.37,2013-01-10 14:15:00,
2013-01-10 09:20:00,24.0,22.3,30.52,West,261,0.0,0.0,93,0.00,CLR,,0.00,WeatherDisplay:10.37,2013-01-10 14:20:00,
2013-01-10 09:25:00,24.8,23.1,30.52,West,261,0.0,0.0,93,0.00,CLR,,0.00,WeatherDisplay:10.37,2013-01-10 14:25:00,
2013-01-10 09:30:00,25.7,24.0,30.52,West,261,0.0,0.0,93,0.00,CLR,,0.00,WeatherDisplay:10.37,2013-01-10 14:30:00,
2013-01-10 09:35:00,26.5,24.8,30.52,West,261,0.0,0.0,93,0.00,CLR,,0.00,WeatherDisplay:10.37,2013-01-10 14:35:00,
2013-01-10 09:40:00,27.8,25.8,30.52,West,261,0.0,0.0,92,0.00,CLR,,0.00,WeatherDisplay:10.37,2013-01-10 14:40:00,
2013-01-10 09:45:00,28.8,26.8,30.52,West,261,0.0,0.0,92,0.00,CLR,,0.00,WeatherDisplay:10.37,2013-01-10 14:45:00,
2013-01-10 09:50:00,29.6,27.0,30.52,West,261,0.0,0.0,90,0.00,CLR,,0.00,WeatherDisplay:10.37,2013-01-10 14:50:00,
2013-01-10 09:55:00,30.0,27.2,30.52,West,261,0.0,0.0,89,0.00,CLR,,0.00,WeatherDisplay:10.37,2013-01-10 14:55:00,
2013-01-10 10:00:00,30.6,27.2,30.52,West,261,0.0,0.0,87,0.00,CLR,,0.00,WeatherDisplay:10.37,2013-01-10 15:00:00,
2013-01-10 10:05:00,31.4,28.0,30.51,West,261,0.0,0.0,87,0.00,CLR,,0.00,WeatherDisplay:10.37,2013-01-10 15:05:00,
2013-01-10 10:10:00,32.2,28.2,30.51,West,261,0.0,0.0,85,0.00,CLR,,0.00,WeatherDisplay:10.37,2013-01-10 15:10:00,
2013-01-10 10:15:00,33.0,28.4,30.52,West,261,0.0,0.0,83,0.00,CLR,,0.00,WeatherDisplay:10.37,2013-01-10 15:15:00,
2013-01-10 10:20:00,33.8,28.6,30.51,West,261,0.0,0.0,81,0.00,CLR,,0.00,WeatherDisplay:10.37,2013-01-10 15:20:00,
2013-01-10 10:25:00,34.4,28.6,30.51,West,261,0.0,0.0,79,0.00,CLR,,0.00,WeatherDisplay:10.37,2013-01-10 15:25:00,
2013-01-10 10:30:00,35.0,28.5,30.51,West,261,0.0,0.0,77,0.00,CLR,,0.00,WeatherDisplay:10.37,2013-01-10 15:30:00,
2013-01-10 10:35:00,35.2,28.4,30.51,West,261,0.0,0.0,76,0.00,CLR,,0.00,WeatherDisplay:10.37,2013-01-10 15:35:00,
2013-01-10 10:40:00,35.6,28.8,30.51,West,261,0.0,0.3,76,0.00,CLR,,0.00,WeatherDisplay:10.37,2013-01-10 15:40:00,
2013-01-10 10:45:00,36.0,28.5,30.51,West,261,0.0,0.0,74,0.00,CLR,,0.00,WeatherDisplay:10.37,2013-01-10 15:45:00,
2013-01-10 10:50:00,36.4,28.9,30.51,West,261,2.3,2.3,74,0.00,CLR,,0.00,WeatherDisplay:10.37,2013-01-10 15:50:00,
2013-01-10 10:55:00,36.6,28.4,30.51,WSW,254,3.5,3.5,72,0.00,CLR,,0.00,WeatherDisplay:10.37,2013-01-10 15:55:00,
2013-01-10 11:00:00,36.8,28.6,30.51,SW,234,3.5,3.5,72,0.00,CLR,,0.00,WeatherDisplay:10.37,2013-01-10 16:00:00,
2013-01-10 11:05:00,36.9,28.4,30.51,SSW,202,6.9,6.9,71,0.00,CLR,,0.00,WeatherDisplay:10.37,2013-01-10 16:05:00,
2013-01-10 11:10:00,36.9,28.4,30.51,SW,232,4.6,4.6,71,0.00,CLR,,0.00,WeatherDisplay:10.37,2013-01-10 16:10:00,
2013-01-10 11:15:00,37.0,28.5,30.51,South,188,3.5,3.5,71,0.00,CLR,,0.00,WeatherDisplay:10.37,2013-01-10 16:15:00,
2013-01-10 11:20:00,37.3,28.8,30.51,South,186,3.5,3.5,71,0.00,CLR,,0.00,WeatherDisplay:10.37,2013-01-10 16:20:00,
2013-01-10 11:25:00,37.7,28.8,30.51,SSW,212,3.5,4.5,70,0.00,CLR,,0.00,WeatherDisplay:10.37,2013-01-10 16:25:00,
2013-01-10 11:30:00,37.8,28.9,30.50,South,182,3.5,3.5,70,0.00,CLR,,0.00,WeatherDisplay:10.37,2013-01-10 16:30:00,
2013-01-10 11:35:00,38.2,28.6,30.50,SW,219,3.5,3.5,68,0.00,CLR,,0.00,WeatherDisplay:10.37,2013-01-10 16:35:00,
2013-01-10 11:40:00,38.7,29.0,30.50,SW,214,1.0,1.0,68,0.00,CLR,,0.00,WeatherDisplay:10.37,2013-01-10 16:40:00,
2013-01-10 11:45:00,39.1,28.7,30.50,South,187,9.2,9.2,66,0.00,CLR,,0.00,WeatherDisplay:10.37,2013-01-10 16:45:00,
2013-01-10 11:50:00,38.7,28.7,30.50,SSW,213,9.2,9.2,67,0.00,CLR,,0.00,WeatherDisplay:10.37,2013-01-10 16:50:00,
2013-01-10 11:55:00,38.6,28.6,30.49,SW,223,8.1,8.1,67,0.00,CLR,,0.00,WeatherDisplay:10.37,2013-01-10 16:55:00,
2013-01-10 12:00:00,38.8,29.1,30.49,South,184,5.8,5.8,68,0.00,CLR,,0.00,WeatherDisplay:10.37,2013-01-10 17:00:00,
2013-01-10 12:05:00,38.5,28.9,30.49,South,171,4.0,4.0,68,0.00,CLR,,0.00,WeatherDisplay:10.37,2013-01-10 17:05:00,
2013-01-10 12:10:00,38.7,29.4,30.48,South,188,2.3,0.0,69,0.00,CLR,,0.00,WeatherDisplay:10.37,2013-01-10 17:10:00,
2013-01-10 12:15:00,38.9,29.2,30.48,South,182,3.5,3.5,68,0.00,CLR,,0.00,WeatherDisplay:10.37,2013-01-10 17:15:00,
2013-01-10 12:20:00,38.9,29.2,30.48,South,176,2.3,2.3,68,0.00,CLR,,0.00,WeatherDisplay:10.37,2013-01-10 17:20:00,
2013-01-10 12:25:00,38.9,29.2,30.48,South,188,5.8,5.8,68,0.00,CLR,,0.00,WeatherDisplay:10.37,2013-01-10 17:25:00,
2013-01-10 12:30:00,39.4,29.7,30.47,South,187,3.0,3.0,68,0.00,CLR,,0.00,WeatherDisplay:10.37,2013-01-10 17:30:00,
2013-01-10 12:35:00,39.3,29.6,30.47,South,189,3.5,3.5,68,0.00,CLR,,0.00,WeatherDisplay:10.37,2013-01-10 17:35:00,
2013-01-10 12:40:00,40.1,30.4,30.47,South,188,3.5,3.5,68,0.00,CLR,,0.00,WeatherDisplay:10.37,2013-01-10 17:40:00,
2013-01-10 12:45:00,39.9,29.8,30.46,South,171,3.5,3.5,67,0.00,CLR,,0.00,WeatherDisplay:10.37,2013-01-10 17:45:00,
2013-01-10 12:50:00,39.8,29.4,30.46,South,184,8.1,8.1,66,0.00,CLR,,0.00,WeatherDisplay:10.37,2013-01-10 17:50:00,
2013-01-10 12:55:00,39.8,29.7,30.46,South,178,5.8,5.8,67,0.00,CLR,,0.00,WeatherDisplay:10.37,2013-01-10 17:55:00,
2013-01-10 13:00:00,39.8,29.7,30.46,South,182,3.5,3.5,67,0.00,CLR,,0.00,WeatherDisplay:10.37,2013-01-10 18:00:00,
2013-01-10 13:05:00,40.4,29.9,30.45,South,188,5.8,5.8,66,0.00,CLR,,0.00,WeatherDisplay:10.37,2013-01-10 18:05:00,
2013-01-10 13:10:00,40.5,29.7,30.45,SE,145,9.0,9.0,65,0.00,CLR,,0.00,WeatherDisplay:10.37,2013-01-10 18:10:00,
2013-01-10 13:15:00,40.4,29.9,30.44,SE,145,4.6,4.6,66,0.00,CLR,,0.00,WeatherDisplay:10.37,2013-01-10 18:15:00,
2013-01-10 13:20:00,40.3,29.8,30.44,South,173,4.6,0.0,66,0.00,CLR,,0.00,WeatherDisplay:10.37,2013-01-10 18:20:00,
2013-01-10 13:25:00,40.6,29.7,30.44,SSE,148,3.5,3.5,65,0.00,CLR,,0.00,WeatherDisplay:10.37,2013-01-10 18:25:00,
2013-01-10 13:30:00,40.5,29.7,30.43,SSW,194,3.5,3.5,65,0.00,CLR,,0.00,WeatherDisplay:10.37,2013-01-10 18:30:00,
2013-01-10 13:35:00,40.4,29.6,30.43,WSW,242,5.8,5.8,65,0.00,CLR,,0.00,WeatherDisplay:10.37,2013-01-10 18:35:00,
2013-01-10 13:41:00,40.6,30.1,30.43,South,173,0.0,0.0,66,0.00,CLR,,0.00,WeatherDisplay:10.37,2013-01-10 18:41:00,
2013-01-10 13:46:00,40.6,29.7,30.43,South,175,5.0,5.0,65,0.00,CLR,,0.00,WeatherDisplay:10.37,2013-01-10 18:46:00,
2013-01-10 13:51:00,40.7,29.8,30.43,SSW,207,4.6,4.6,65,0.00,CLR,,0.00,WeatherDisplay:10.37,2013-01-10 18:51:00,
2013-01-10 13:56:00,40.6,29.7,30.42,SSW,205,5.8,5.8,65,0.00,CLR,,0.00,WeatherDisplay:10.37,2013-01-10 18:56:00,
2013-01-10 14:01:00,40.4,29.2,30.42,SSW,207,3.5,3.5,64,0.00,CLR,,0.00,WeatherDisplay:10.37,2013-01-10 19:01:00,
2013-01-10 14:06:00,40.6,29.7,30.41,SSE,163,5.8,5.8,65,0.00,CLR,,0.00,WeatherDisplay:10.37,2013-01-10 19:06:00,
2013-01-10 14:11:00,40.8,29.9,30.41,South,180,4.0,4.0,65,0.00,CLR,,0.00,WeatherDisplay:10.37,2013-01-10 19:11:00,
2013-01-10 14:16:00,41.1,29.8,30.41,SSW,199,0.0,0.0,64,0.00,CLR,,0.00,WeatherDisplay:10.37,2013-01-10 19:16:00,
2013-01-10 14:21:00,40.8,29.6,30.40,SSE,152,3.5,3.5,64,0.00,CLR,,0.00,WeatherDisplay:10.37,2013-01-10 19:21:00,
2013-01-10 14:26:00,40.6,29.7,30.40,South,182,4.6,4.6,65,0.00,CLR,,0.00,WeatherDisplay:10.37,2013-01-10 19:26:00,
2013-01-10 14:31:00,40.5,30.0,30.40,South,175,3.5,3.5,66,0.00,CLR,,0.00,WeatherDisplay:10.37,2013-01-10 19:31:00,
2013-01-10 14:36:00,40.4,29.9,30.40,South,173,0.0,0.0,66,0.00,CLR,,0.00,WeatherDisplay:10.37,2013-01-10 19:36:00,
2013-01-10 14:41:00,40.4,29.9,30.40,South,179,2.3,0.0,66,0.00,CLR,,0.00,WeatherDisplay:10.37,2013-01-10 19:41:00,
2013-01-10 14:46:00,40.4,30.3,30.40,South,178,3.5,0.0,67,0.00,CLR,,0.00,WeatherDisplay:10.37,2013-01-10 19:46:00,
2013-01-10 14:51:00,41.1,30.6,30.40,SSW,197,4.6,4.6,66,0.00,CLR,,0.00,WeatherDisplay:10.37,2013-01-10 19:51:00,
2013-01-10 14:56:00,41.1,30.6,30.40,South,179,3.5,3.5,66,0.00,CLR,,0.00,WeatherDisplay:10.37,2013-01-10 19:56:00,
2013-01-10 15:01:00,41.4,30.9,30.40,SSW,196,3.5,3.5,66,0.00,CLR,,0.00,WeatherDisplay:10.37,2013-01-10 20:01:00,
2013-01-10 15:06:00,42.0,31.5,30.40,South,183,1.1,0.0,66,0.00,CLR,,0.00,WeatherDisplay:10.37,2013-01-10 20:06:00,
2013-01-10 15:11:00,41.6,30.7,30.39,SE,133,3.5,3.5,65,0.00,CLR,,0.00,WeatherDisplay:10.37,2013-01-10 20:11:00,
2013-01-10 15:16:00,41.3,30.8,30.39,SE,143,0.0,0.3,66,0.00,CLR,,0.00,WeatherDisplay:10.37,2013-01-10 20:16:00,
2013-01-10 15:21:00,41.6,31.1,30.39,South,184,3.5,3.5,66,0.00,CLR,,0.00,WeatherDisplay:10.37,2013-01-10 20:21:00,
2013-01-10 15:26:00,41.4,30.9,30.39,South,173,3.5,3.5,66,0.00,CLR,,0.00,WeatherDisplay:10.37,2013-01-10 20:26:00,
2013-01-10 15:31:00,40.8,30.7,30.39,South,188,2.3,0.0,67,0.00,CLR,,0.00,WeatherDisplay:10.37,2013-01-10 20:31:00,
2013-01-10 15:36:00,40.7,30.6,30.39,South,188,0.0,0.0,67,0.00,CLR,,0.00,WeatherDisplay:10.37,2013-01-10 20:36:00,
2013-01-10 15:41:00,40.5,30.8,30.39,SSE,157,3.5,3.5,68,0.00,CLR,,0.00,WeatherDisplay:10.37,2013-01-10 20:41:00,
2013-01-10 15:46:00,40.3,30.6,30.38,SSE,158,3.5,3.5,68,0.00,CLR,,0.00,WeatherDisplay:10.37,2013-01-10 20:46:00,
2013-01-10 15:51:00,40.4,31.0,30.38,South,177,0.0,0.0,69,0.00,CLR,,0.00,WeatherDisplay:10.37,2013-01-10 20:51:00,
2013-01-10 15:56:00,40.4,30.7,30.38,SSE,149,3.0,3.0,68,0.00,CLR,,0.00,WeatherDisplay:10.37,2013-01-10 20:56:00,
2013-01-10 16:01:00,40.4,31.0,30.38,South,172,3.5,3.5,69,0.00,CLR,,0.00,WeatherDisplay:10.37,2013-01-10 21:01:00,
2013-01-10 16:06:00,40.2,30.8,30.38,SSE,164,3.5,0.0,69,0.00,CLR,,0.00,WeatherDisplay:10.37,2013-01-10 21:06:00,
2013-01-10 16:11:00,40.1,30.7,30.38,SSE,165,4.6,4.6,69,0.00,CLR,,0.00,WeatherDisplay:10.37,2013-01-10 21:11:00,
2013-01-10 16:16:00,40.0,30.6,30.38,SSE,167,1.1,1.1,69,0.00,CLR,,0.00,WeatherDisplay:10.37,2013-01-10 21:16:00,
2013-01-10 16:21:00,39.8,30.8,30.37,SSE,167,1.1,0.0,70,0.00,CLR,,0.00,WeatherDisplay:10.37,2013-01-10 21:21:00,
2013-01-10 16:26:00,39.8,30.8,30.38,SSE,165,0.0,0.0,70,0.00,CLR,,0.00,WeatherDisplay:10.37,2013-01-10 21:26:00,
2013-01-10 16:31:00,39.6,30.6,30.37,SSE,165,0.0,0.6,70,0.00,CLR,,0.00,WeatherDisplay:10.37,2013-01-10 21:31:00,
2013-01-10 16:36:00,39.3,30.7,30.37,SSE,152,4.6,0.0,71,0.00,CLR,,0.00,WeatherDisplay:10.37,2013-01-10 21:36:00,
2013-01-10 16:41:00,39.2,30.6,30.36,SSE,153,0.0,0.0,71,0.00,CLR,,0.00,WeatherDisplay:10.37,2013-01-10 21:41:00,
2013-01-10 16:46:00,39.1,30.5,30.37,SSE,153,1.0,1.2,71,0.00,CLR,,0.00,WeatherDisplay:10.37,2013-01-10 21:46:00,
2013-01-10 16:51:00,38.9,30.6,30.36,SSE,152,0.0,0.0,72,0.00,CLR,,0.00,WeatherDisplay:10.37,2013-01-10 21:51:00,
2013-01-10 16:56:00,38.7,30.8,30.36,SSE,152,1.1,0.0,73,0.00,CLR,,0.00,WeatherDisplay:10.37,2013-01-10 21:56:00,
2013-01-10 17:01:00,38.5,30.6,30.36,SSE,153,1.1,0.0,73,0.00,CLR,,0.00,WeatherDisplay:10.37,2013-01-10 22:01:00,
2013-01-10 17:06:00,38.4,30.5,30.36,SSE,150,1.1,1.1,73,0.00,CLR,,0.00,WeatherDisplay:10.37,2013-01-10 22:06:00,
2013-01-10 17:11:00,38.2,30.6,30.36,SSE,150,0.0,0.0,74,0.00,CLR,,0.00,WeatherDisplay:10.37,2013-01-10 22:11:00,
2013-01-10 17:16:00,38.0,30.4,30.36,SSE,150,3.5,0.0,74,0.00,CLR,,0.00,WeatherDisplay:10.37,2013-01-10 22:16:00,
2013-01-10 17:21:00,37.9,30.4,30.36,SSE,150,0.0,0.0,74,0.00,CLR,,0.00,WeatherDisplay:10.37,2013-01-10 22:21:00,
2013-01-10 17:26:00,37.7,30.2,30.36,SSE,150,0.0,0.5,74,0.00,CLR,,0.00,WeatherDisplay:10.37,2013-01-10 22:26:00,
2013-01-10 17:31:00,37.6,30.1,30.36,SSE,152,2.0,2.0,74,0.00,CLR,,0.00,WeatherDisplay:10.37,2013-01-10 22:31:00,
2013-01-10 17:36:00,37.4,30.2,30.35,SSE,152,0.0,0.0,75,0.00,CLR,,0.00,WeatherDisplay:10.37,2013-01-10 22:36:00,
2013-01-10 17:42:00,37.3,30.1,30.35,SSE,152,0.0,0.0,75,0.00,CLR,,0.00,WeatherDisplay:10.37,2013-01-10 22:42:00,
2013-01-10 17:47:00,37.1,29.9,30.34,SSE,153,3.5,3.5,75,0.00,CLR,,0.00,WeatherDisplay:10.37,2013-01-10 22:47:00,
2013-01-10 17:52:00,36.9,29.7,30.34,SSE,153,0.0,0.0,75,0.00,CLR,,0.00,WeatherDisplay:10.37,2013-01-10 22:52:00,
2013-01-10 17:57:00,36.8,29.9,30.34,SSE,153,2.3,2.3,76,0.00,CLR,,0.00,WeatherDisplay:10.37,2013-01-10 22:57:00,
2013-01-10 18:02:00,36.7,29.5,30.34,SSE,153,3.5,3.5,75,0.00,CLR,,0.00,WeatherDisplay:10.37,2013-01-10 23:02:00,
2013-01-10 18:07:00,36.6,29.4,30.34,SSE,153,2.0,2.0,75,0.00,CLR,,0.00,WeatherDisplay:10.37,2013-01-10 23:07:00,
2013-01-10 18:12:00,36.5,29.7,30.35,SSE,154,0.0,0.1,76,0.00,CLR,,0.00,WeatherDisplay:10.37,2013-01-10 23:12:00,
2013-01-10 18:17:00,36.3,29.5,30.35,SSE,154,3.5,0.0,76,0.00,CLR,,0.00,WeatherDisplay:10.37,2013-01-10 23:17:00,
2013-01-10 18:22:00,36.2,29.4,30.34,SSE,154,2.3,0.0,76,0.00,CLR,,0.00,WeatherDisplay:10.37,2013-01-10 23:22:00,
2013-01-10 18:27:00,35.9,29.4,30.34,SSE,152,2.3,2.3,77,0.00,CLR,,0.00,WeatherDisplay:10.37,2013-01-10 23:27:00,
2013-01-10 18:32:00,35.6,29.4,30.34,SSE,152,3.0,3.0,78,0.00,CLR,,0.00,WeatherDisplay:10.37,2013-01-10 23:32:00,
2013-01-10 18:37:00,35.5,29.3,30.34,SSE,153,2.3,2.3,78,0.00,CLR,,0.00,WeatherDisplay:10.37,2013-01-10 23:37:00,
2013-01-10 18:42:00,35.3,29.4,30.33,SSE,153,1.1,1.1,79,0.00,CLR,,0.00,WeatherDisplay:10.37,2013-01-10 23:42:00,
2013-01-10 18:47:00,35.1,29.2,30.33,SSE,152,0.0,0.0,79,0.00,CLR,,0.00,WeatherDisplay:10.37,2013-01-10 23:47:00,
2013-01-10 18:52:00,34.9,29.0,30.33,SSE,152,2.3,0.0,79,0.00,CLR,,0.00,WeatherDisplay:10.37,2013-01-10 23:52:00,
2013-01-10 18:57:00,34.8,29.3,30.33,SSE,152,1.0,1.0,80,0.00,CLR,,0.00,WeatherDisplay:10.37,2013-01-10 23:57:00,
2013-01-10 19:02:00,34.7,29.2,30.32,SSE,149,0.0,0.0,80,0.00,CLR,,0.00,WeatherDisplay:10.37,2013-01-11 00:02:00,
2013-01-10 19:07:00,34.4,28.9,30.31,SE,141,2.0,2.0,80,0.00,CLR,,0.00,WeatherDisplay:10.37,2013-01-11 00:07:00,
2013-01-10 19:12:00,34.4,28.9,30.31,SE,140,0.0,0.0,80,0.00,CLR,,0.00,WeatherDisplay:10.37,2013-01-11 00:12:00,
2013-01-10 19:17:00,34.4,28.9,30.31,SE,134,2.3,2.3,80,0.00,CLR,,0.00,WeatherDisplay:10.37,2013-01-11 00:17:00,
2013-01-10 19:22:00,34.4,28.9,30.31,SE,134,2.3,2.3,80,0.00,CLR,,0.00,WeatherDisplay:10.37,2013-01-11 00:22:00,
2013-01-10 19:27:00,34.4,28.9,30.31,SE,136,3.5,3.5,80,0.00,CLR,,0.00,WeatherDisplay:10.37,2013-01-11 00:27:00,
2013-01-10 19:32:00,34.4,28.9,30.30,SE,137,0.0,0.0,80,0.00,CLR,,0.00,WeatherDisplay:10.37,2013-01-11 00:32:00,
2013-01-10 19:37:00,34.4,28.9,30.30,SSE,156,0.0,0.0,80,0.00,CLR,,0.00,WeatherDisplay:10.37,2013-01-11 00:37:00,
2013-01-10 19:42:00,34.4,28.9,30.29,SSE,152,0.0,0.0,80,0.00,CLR,,0.00,WeatherDisplay:10.37,2013-01-11 00:42:00,
2013-01-10 19:47:00,34.4,28.9,30.29,SSE,153,0.0,0.0,80,0.00,CLR,,0.00,WeatherDisplay:10.37,2013-01-11 00:47:00,
2013-01-10 19:52:00,34.4,28.9,30.30,SSE,154,0.0,0.0,80,0.00,CLR,,0.00,WeatherDisplay:10.37,2013-01-11 00:52:00,
2013-01-10 19:57:00,34.4,28.9,30.30,SSE,154,3.0,3.0,80,0.00,CLR,,0.00,WeatherDisplay:10.37,2013-01-11 00:57:00,
2013-01-10 20:02:00,34.5,28.7,30.30,SSE,155,3.5,3.5,79,0.00,CLR,,0.00,WeatherDisplay:10.37,2013-01-11 01:02:00,
2013-01-10 20:07:00,34.7,28.9,30.29,SSE,167,3.5,3.5,79,0.00,CLR,,0.00,WeatherDisplay:10.37,2013-01-11 01:07:00,
2013-01-10 20:12:00,34.7,28.5,30.29,SSE,160,4.6,4.6,78,0.00,CLR,,0.00,WeatherDisplay:10.37,2013-01-11 01:12:00,
2013-01-10 20:17:00,34.7,28.5,30.28,SSE,161,1.1,1.6,78,0.00,CLR,,0.00,WeatherDisplay:10.37,2013-01-11 01:17:00,
2013-01-10 20:23:00,34.7,28.5,30.28,SSE,162,4.6,4.6,78,0.00,CLR,,0.00,WeatherDisplay:10.37,2013-01-11 01:23:00,
2013-01-10 20:28:00,34.7,28.5,30.27,South,171,4.6,4.6,78,0.00,CLR,,0.00,WeatherDisplay:10.37,2013-01-11 01:28:00,
2013-01-10 20:33:00,34.6,28.4,30.28,SSE,166,5.8,5.8,78,0.00,CLR,,0.00,WeatherDisplay:10.37,2013-01-11 01:33:00,
2013-01-10 20:38:00,34.6,28.4,30.28,SSW,195,5.0,5.0,78,0.00,CLR,,0.00,WeatherDisplay:10.37,2013-01-11 01:38:00,
2013-01-10 20:43:00,34.5,28.3,30.27,SSE,167,2.3,2.3,78,0.00,CLR,,0.00,WeatherDisplay:10.37,2013-01-11 01:43:00,
2013-01-10 20:48:00,34.4,28.2,30.27,SSE,157,6.0,6.0,78,0.00,CLR,,0.00,WeatherDisplay:10.37,2013-01-11 01:48:00,
2013-01-10 20:53:00,34.4,28.2,30.26,SSE,161,0.0,0.1,78,0.00,CLR,,0.00,WeatherDisplay:10.37,2013-01-11 01:53:00,
2013-01-10 20:58:00,34.4,28.6,30.27,South,175,1.1,0.0,79,0.00,CLR,,0.00,WeatherDisplay:10.37,2013-01-11 01:58:00,
2013-01-10 21:03:00,34.4,28.6,30.26,South,175,1.1,1.1,79,0.00,CLR,,0.00,WeatherDisplay:10.37,2013-01-11 02:03:00,
2013-01-10 21:08:00,34.4,28.6,30.27,South,175,0.0,0.0,79,0.00,CLR,,0.00,WeatherDisplay:10.37,2013-01-11 02:08:00,
2013-01-10 21:13:00,34.3,28.8,30.26,SSE,165,0.0,0.1,80,0.00,CLR,,0.00,WeatherDisplay:10.37,2013-01-11 02:13:00,
2013-01-10 21:18:00,34.3,28.8,30.26,SSE,167,3.5,0.0,80,0.00,CLR,,0.00,WeatherDisplay:10.37,2013-01-11 02:18:00,
2013-01-10 21:24:00,34.2,28.7,30.26,SSE,161,3.5,3.5,80,0.00,CLR,,0.00,WeatherDisplay:10.37,2013-01-11 02:24:00,
2013-01-10 21:29:00,34.1,28.6,30.26,SSE,162,0.0,0.0,80,0.00,CLR,,0.00,WeatherDisplay:10.37,2013-01-11 02:29:00,
2013-01-10 21:34:00,34.1,28.9,30.26,SSE,163,2.3,2.3,81,0.00,CLR,,0.00,WeatherDisplay:10.37,2013-01-11 02:34:00,
2013-01-10 21:39:00,34.0,28.8,30.26,SSE,163,0.0,0.0,81,0.00,CLR,,0.00,WeatherDisplay:10.37,2013-01-11 02:39:00,
2013-01-10 21:44:00,33.9,28.7,30.26,SSE,163,0.0,0.0,81,0.00,CLR,,0.00,WeatherDisplay:10.37,2013-01-11 02:44:00,
2013-01-10 21:49:00,33.8,28.6,30.25,SSE,162,4.0,4.0,81,0.00,CLR,,0.00,WeatherDisplay:10.37,2013-01-11 02:49:00,
2013-01-10 21:54:00,33.9,29.0,30.25,SSE,161,0.0,0.0,82,0.00,CLR,,0.00,WeatherDisplay:10.37,2013-01-11 02:54:00,
2013-01-10 21:59:00,33.9,29.0,30.24,SSE,159,3.5,3.5,82,0.00,CLR,,0.00,WeatherDisplay:10.37,2013-01-11 02:59:00,
2013-01-10 22:04:00,33.8,28.9,30.24,SSE,160,1.1,1.1,82,0.00,CLR,,0.00,WeatherDisplay:10.37,2013-01-11 03:04:00,
2013-01-10 22:09:00,33.9,29.0,30.23,South,170,5.8,5.8,82,0.00,CLR,,0.00,WeatherDisplay:10.37,2013-01-11 03:09:00,
2013-01-10 22:14:00,33.9,29.0,30.23,South,169,4.6,4.6,82,0.00,CLR,,0.00,WeatherDisplay:10.37,2013-01-11 03:14:00,
2013-01-10 22:19:00,34.0,29.1,30.22,SSE,161,0.0,0.0,82,0.00,CLR,,0.00,WeatherDisplay:10.37,2013-01-11 03:19:00,
2013-01-10 22:24:00,34.0,29.1,30.22,SSE,161,1.1,1.1,82,0.00,CLR,,0.00,WeatherDisplay:10.37,2013-01-11 03:24:00,
2013-01-10 22:29:00,34.0,29.4,30.21,SSE,158,2.0,0.0,83,0.00,CLR,,0.00,WeatherDisplay:10.37,2013-01-11 03:29:00,
2013-01-10 22:34:00,34.0,29.4,30.21,SSE,161,3.5,3.5,83,0.00,CLR,,0.00,WeatherDisplay:10.37,2013-01-11 03:34:00,
2013-01-10 22:39:00,33.9,29.3,30.20,SSE,161,0.0,0.0,83,0.00,CLR,,0.00,WeatherDisplay:10.37,2013-01-11 03:39:00,
2013-01-10 22:44:00,33.9,29.6,30.20,SSE,161,0.0,0.0,84,0.00,CLR,,0.00,WeatherDisplay:10.37,2013-01-11 03:44:00,
2013-01-10 22:49:00,33.9,29.6,30.19,SSE,161,1.1,1.1,84,0.00,CLR,,0.00,WeatherDisplay:10.37,2013-01-11 03:49:00,
2013-01-10 22:54:00,33.8,29.5,30.19,SSE,160,3.5,3.5,84,0.00,CLR,,0.00,WeatherDisplay:10.37,2013-01-11 03:54:00,
2013-01-10 22:59:00,33.7,29.7,30.19,SSE,159,3.5,0.0,85,0.00,CLR,,0.00,WeatherDisplay:10.37,2013-01-11 03:59:00,
2013-01-10 23:04:00,33.6,29.9,30.18,SSE,158,3.5,3.5,86,0.01,RA,,0.01,WeatherDisplay:10.37,2013-01-11 04:04:00,
2013-01-10 23:09:00,33.4,29.9,30.18,SSE,158,0.0,0.0,87,0.02,RA,,0.02,WeatherDisplay:10.37,2013-01-11 04:09:00,
2013-01-10 23:14:00,33.2,30.0,30.18,SSE,158,0.0,0.0,88,0.02,RA,,0.02,WeatherDisplay:10.37,2013-01-11 04:14:00,
2013-01-10 23:19:00,33.0,30.1,30.18,SSE,157,2.3,0.0,89,0.03,RA,,0.03,WeatherDisplay:10.37,2013-01-11 04:19:00,
2013-01-10 23:24:00,33.0,30.1,30.17,SSE,157,3.5,3.5,89,0.03,RA,,0.03,WeatherDisplay:10.37,2013-01-11 04:24:00,
2013-01-10 23:29:00,32.9,30.3,30.17,SSE,157,2.3,0.0,90,0.04,RA,,0.04,WeatherDisplay:10.37,2013-01-11 04:29:00,
2013-01-10 23:34:00,32.8,30.2,30.16,SSE,148,3.5,3.5,90,0.04,RA,,0.04,WeatherDisplay:10.37,2013-01-11 04:34:00,
2013-01-10 23:39:00,32.8,30.5,30.16,SSE,148,2.0,2.0,91,0.05,RA,,0.05,WeatherDisplay:10.37,2013-01-11 04:39:00,
2013-01-10 23:44:00,32.7,30.4,30.15,SSE,148,2.0,0.0,91,0.06,RA,,0.06,WeatherDisplay:10.37,2013-01-11 04:44:00,
2013-01-10 23:49:00,32.6,30.5,30.15,SE,132,3.5,0.0,92,0.08,RA,,0.08,WeatherDisplay:10.37,2013-01-11 04:49:00,
2013-01-10 23:54:00,32.6,30.5,30.15,SE,134,3.5,3.5,92,0.10,RA,,0.11,WeatherDisplay:10.37,2013-01-11 04:54:00,
2013-01-10 23:59:00,32.6,30.5,30.15,SE,132,1.1,0.0,92,0.12,RA,,0.12,WeatherDisplay:10.37,2013-01-11 04:59:00,